STARLINK-1636, 46153

Orbit data source: Space-Track

STARLINK-1636, 46153 is a payload satellite owned by SpaceX/Seattle (US) in LEO that was launched on Tue, 18 Aug 2020 UTC via an FALCON 9 launch vehicle from the Air Force Eastern Test Range (AFETR). Payloads include a variety of satellites, spacecraft, and rockets equipped with specific instruments for various scientific and technological missions. These include communications satellites like Starlink; space stations such as the ISS; scientific satellites like the Hubble; Earth observation satellites from companies like Planet Labs, Umbra, and HawkEye 360; GPS; miniature CubeSats for education and research; and military/defense satellites.

Loading next visibility...
STARLINK-1636 details
Identifier
46153, 2020-057AN
Orbit
LEO
Last TLE update6 hours ago
Origin
Flag of USSpaceX/Seattle (US)
ManufacturerSpaceX/Seattle
MissionOperational Commercial Communications
Bus & MotorSTARLINK, Unknown motor
Mass260 kg wet, ~248 kg dry
Launch date (UTC)
2020-08-18 (4 years ago)
Launch vehicle
FALCON 9
Launch site
Air Force Eastern Test Range (AFETR)
Object type
Payload
Rocket body
Debris
Shape & HBRBox + 1 Pan, 8.86 m
Radar Cross Section13.562 m², Large (>1 m²)

Expand to show TLE details & history

TLE from 6 hours ago
0 STARLINK-1636
1 46153U 20057AN  24361.29288790  .00024861  00000-0  16820-2 0  9994
2 46153  53.0530 104.6595 0001517  92.4457 267.6706 15.06400425240267
Epoch: 2024-12-26T07:01Z
Definitive object data (Epoch: 2024-12-26T07:01:45.514Z)
Latitude
Longitude-96.05451°
Altitude548.132 km
Speed7.589 km/s
True Right ascension06h 58m 38s
True Declination0° 00' 00"
Sunlit
Object was in full shadow at TLE epoch
Visualization TLE readout
Latitude-45.98428°
Longitude133.57755°
Altitude563.715 km
Speed7.579 km/s
Apparent Right ascension23h 16m 18s
Apparent Declination-43° 50' 42"
Sunlit
Object is in daylight
Visualization observer readout
Local Sidereal Time12:14:37
Azimuth114.681° SE
Elevation-78.476°
Doppler factor1
Orbital elements
Apogee altitude548.532 km
Perigee altitude546.431 km
Semi-major axis6,925.618 km
Eccentricity0.0001517
Inclination53.053°
RAAN104.6595°
Arg. of periapsis92.4457°
True anomaly267.65323°
Mean anomaly267.6706°
Eccentric anomaly267.66192°
Mean motion3.76578 °/min
BSTAR0.001682
Orbital period95.6 mins
Loading maneuver chart data...
Loading historical data...
Loading historical data...
Loading historical data...
Loading historical data...
Loading historical data...
Loading historical data...
Loading historical data...

STARLINK-1636 Visibility forecast

Observer location: undefined°, undefined

Span
Click to sort rows by Start time (UTC) header in descending order
Start Az.
Max El. time (UTC)
Max El. Az.
Max El.
End time (UTC)
End Az.
5 mins2024-12-26 15:27:02.078Z339.551° N2024-12-26 15:29:02.078Z16.93° NNE22.49°2024-12-26 15:32:02.078Z74.343° E
6 mins2024-12-26 17:07:02.078Z298.594° NW2024-12-26 17:09:02.078Z237.526° WSW42.355°2024-12-26 17:13:02.078Z141.348° SSE
5 mins2024-12-27 08:40:02.078Z168.509° S2024-12-27 08:42:02.078Z129.902° SE21.331°2024-12-27 08:45:02.078Z78.857° E
6 mins2024-12-27 10:19:02.078Z258.484° W2024-12-27 10:21:02.078Z308.242° NW36.961°2024-12-27 10:25:02.078Z40.79° NE
|